Year,Month,Day,Hour,Minute,Value (Times are PST for temperature in C)
2015,08,04,00,00,15.60
2015,08,04,00,01,15.50
2015,08,04,00,02,15.50
2015,08,04,00,03,15.40
2015,08,04,00,04,15.40
2015,08,04,00,05,15.40
2015,08,04,00,06,15.30
2015,08,04,00,07,15.30
2015,08,04,00,08,15.30
2015,08,04,00,09,15.30
2015,08,04,00,10,15.30
2015,08,04,00,11,15.30
2015,08,04,00,12,15.30
2015,08,04,00,13,15.30
2015,08,04,00,14,15.30
2015,08,04,00,15,15.30
2015,08,04,00,16,15.30
2015,08,04,00,17,15.30
2015,08,04,00,18,15.30
2015,08,04,00,19,15.30
2015,08,04,00,20,15.30
2015,08,04,00,21,15.30
2015,08,04,00,22,15.30
2015,08,04,00,23,15.30
2015,08,04,00,24,15.30
2015,08,04,00,25,15.30
2015,08,04,00,26,15.30
2015,08,04,00,27,15.30
2015,08,04,00,28,15.30
2015,08,04,00,29,15.30
2015,08,04,00,30,15.30
2015,08,04,00,31,15.30
2015,08,04,00,32,15.30
2015,08,04,00,33,15.30
2015,08,04,00,34,15.30
2015,08,04,00,35,15.30
2015,08,04,00,36,15.30
2015,08,04,00,37,15.30
2015,08,04,00,38,15.30
2015,08,04,00,39,15.30
2015,08,04,00,40,15.30
2015,08,04,00,41,15.30
2015,08,04,00,42,15.30
2015,08,04,00,43,15.30
2015,08,04,00,44,15.30
2015,08,04,00,45,15.30
2015,08,04,00,46,15.30
2015,08,04,00,47,15.30
2015,08,04,00,48,15.30
2015,08,04,00,49,15.30
2015,08,04,00,50,15.30
2015,08,04,00,51,15.30
2015,08,04,00,52,15.30
2015,08,04,00,53,15.30
2015,08,04,00,54,15.30
2015,08,04,00,55,15.30
2015,08,04,00,56,15.30
2015,08,04,00,57,15.30
2015,08,04,00,58,15.30
2015,08,04,00,59,15.30
2015,08,04,01,00,15.30
2015,08,04,01,01,15.30
2015,08,04,01,02,15.20
2015,08,04,01,03,15.20
2015,08,04,01,04,15.20
2015,08,04,01,05,15.20
2015,08,04,01,06,15.20
2015,08,04,01,07,15.20
2015,08,04,01,08,15.20
2015,08,04,01,09,15.20
2015,08,04,01,10,15.20
2015,08,04,01,11,15.20
2015,08,04,01,12,15.20
2015,08,04,01,13,15.20
2015,08,04,01,14,15.20
2015,08,04,01,15,15.20
2015,08,04,01,16,15.20
2015,08,04,01,17,15.20
2015,08,04,01,18,15.20
2015,08,04,01,19,15.20
2015,08,04,01,20,15.20
2015,08,04,01,21,15.10
2015,08,04,01,22,15.10
2015,08,04,01,23,15.10
2015,08,04,01,24,15.10
2015,08,04,01,25,15.00
2015,08,04,01,26,15.00
2015,08,04,01,27,15.00
2015,08,04,01,28,15.00
2015,08,04,01,29,14.90
2015,08,04,01,30,14.90
2015,08,04,01,31,14.90
2015,08,04,01,32,14.90
2015,08,04,01,33,14.80
2015,08,04,01,34,14.80
2015,08,04,01,35,14.80
2015,08,04,01,36,14.80
2015,08,04,01,37,14.80
2015,08,04,01,38,14.80
2015,08,04,01,39,14.80
2015,08,04,01,40,14.80
2015,08,04,01,41,14.80
2015,08,04,01,42,14.80
2015,08,04,01,43,14.80
2015,08,04,01,44,14.80
2015,08,04,01,45,14.80
2015,08,04,01,46,14.80
2015,08,04,01,47,14.70
2015,08,04,01,48,14.70
2015,08,04,01,49,14.70
2015,08,04,01,50,14.70
2015,08,04,01,51,14.70
2015,08,04,01,52,14.70
2015,08,04,01,53,14.70
2015,08,04,01,54,14.70
2015,08,04,01,55,14.70
2015,08,04,01,56,14.70
2015,08,04,01,57,14.80
2015,08,04,01,58,14.70
2015,08,04,01,59,14.70
2015,08,04,02,00,14.70
2015,08,04,02,01,14.70
2015,08,04,02,02,14.70
2015,08,04,02,03,14.70
2015,08,04,02,04,14.70
2015,08,04,02,05,14.70
2015,08,04,02,06,14.70
2015,08,04,02,07,14.70
2015,08,04,02,08,14.70
2015,08,04,02,09,14.70
2015,08,04,02,10,14.70
2015,08,04,02,11,14.70
2015,08,04,02,12,14.70
2015,08,04,02,13,14.70
2015,08,04,02,14,14.70
2015,08,04,02,15,14.70
2015,08,04,02,16,14.60
2015,08,04,02,17,14.60
2015,08,04,02,18,14.60
2015,08,04,02,19,14.60
2015,08,04,02,20,14.60
2015,08,04,02,21,14.60
2015,08,04,02,22,14.60
2015,08,04,02,23,14.60
2015,08,04,02,24,14.60
2015,08,04,02,25,14.60
2015,08,04,02,26,14.60
2015,08,04,02,27,14.60
2015,08,04,02,28,14.60
2015,08,04,02,29,14.60
2015,08,04,02,30,14.60
2015,08,04,02,31,14.60
2015,08,04,02,32,14.60
2015,08,04,02,33,14.60
2015,08,04,02,34,14.60
2015,08,04,02,35,14.60
2015,08,04,02,36,14.50
2015,08,04,02,37,14.50
2015,08,04,02,38,14.60
2015,08,04,02,39,14.60
2015,08,04,02,40,14.50
2015,08,04,02,41,14.50
2015,08,04,02,42,14.50
2015,08,04,02,43,14.50
2015,08,04,02,44,14.50
2015,08,04,02,45,14.40
2015,08,04,02,46,14.40
2015,08,04,02,47,14.40
2015,08,04,02,48,14.40
2015,08,04,02,49,14.40
2015,08,04,02,50,14.40
2015,08,04,02,51,14.40
2015,08,04,02,52,14.40
2015,08,04,02,53,14.40
2015,08,04,02,54,14.40
2015,08,04,02,55,14.40
2015,08,04,02,56,14.40
2015,08,04,02,57,14.40
2015,08,04,02,58,14.40
2015,08,04,02,59,14.40
2015,08,04,03,00,14.40
2015,08,04,03,01,14.40
2015,08,04,03,02,14.40
2015,08,04,03,03,14.40
2015,08,04,03,04,14.40
2015,08,04,03,05,14.40
2015,08,04,03,06,14.40
2015,08,04,03,07,14.40
2015,08,04,03,08,14.40
2015,08,04,03,09,14.40
2015,08,04,03,10,14.40
2015,08,04,03,11,14.40
2015,08,04,03,12,14.40
2015,08,04,03,13,14.40
2015,08,04,03,14,14.40
2015,08,04,03,15,14.50
2015,08,04,03,16,14.50
2015,08,04,03,17,14.50
2015,08,04,03,18,14.40
2015,08,04,03,19,14.40
2015,08,04,03,20,14.40
2015,08,04,03,21,14.40
2015,08,04,03,22,14.40
2015,08,04,03,23,14.40
2015,08,04,03,24,14.40
2015,08,04,03,25,14.40
2015,08,04,03,26,14.40
2015,08,04,03,27,14.40
2015,08,04,03,28,14.40
2015,08,04,03,29,14.40
2015,08,04,03,30,14.40
2015,08,04,03,31,14.40
2015,08,04,03,32,14.40
2015,08,04,03,33,14.40
2015,08,04,03,34,14.40
2015,08,04,03,35,14.40
2015,08,04,03,36,14.40
2015,08,04,03,37,14.40
2015,08,04,03,38,14.40
2015,08,04,03,39,14.40
2015,08,04,03,40,14.40
2015,08,04,03,41,14.40
2015,08,04,03,42,14.40
2015,08,04,03,43,14.40
2015,08,04,03,44,14.40
2015,08,04,03,45,14.40
2015,08,04,03,46,14.30
2015,08,04,03,47,14.30
2015,08,04,03,48,14.30
2015,08,04,03,49,14.30
2015,08,04,03,50,14.30
2015,08,04,03,51,14.30
2015,08,04,03,52,14.30
2015,08,04,03,53,14.20
2015,08,04,03,54,14.20
2015,08,04,03,55,14.20
2015,08,04,03,56,14.20
2015,08,04,03,57,14.20
2015,08,04,03,58,14.20
2015,08,04,03,59,14.20
2015,08,04,04,00,14.20
2015,08,04,04,01,14.20
2015,08,04,04,02,14.20
2015,08,04,04,03,14.20
2015,08,04,04,04,14.20
2015,08,04,04,05,14.20
2015,08,04,04,06,14.20
2015,08,04,04,07,14.10
2015,08,04,04,08,14.10
2015,08,04,04,09,14.10
2015,08,04,04,10,14.10
2015,08,04,04,11,14.10
2015,08,04,04,12,14.10
2015,08,04,04,13,14.00
2015,08,04,04,14,14.00
2015,08,04,04,15,14.00
2015,08,04,04,16,14.00
2015,08,04,04,17,14.00
2015,08,04,04,18,14.00
2015,08,04,04,19,14.00
2015,08,04,04,20,14.00
2015,08,04,04,21,14.00
2015,08,04,04,22,14.00
2015,08,04,04,23,14.00
2015,08,04,04,24,14.00
2015,08,04,04,25,13.90
2015,08,04,04,26,13.90
2015,08,04,04,27,13.90
2015,08,04,04,28,13.90
2015,08,04,04,29,13.90
2015,08,04,04,30,13.90
2015,08,04,04,31,13.90
2015,08,04,04,32,13.90
2015,08,04,04,33,13.90
2015,08,04,04,34,13.90
2015,08,04,04,35,13.90
2015,08,04,04,36,13.90
2015,08,04,04,37,13.90
2015,08,04,04,38,13.90
2015,08,04,04,39,13.80
2015,08,04,04,40,13.80
2015,08,04,04,41,13.80
2015,08,04,04,42,13.80
2015,08,04,04,43,13.80
2015,08,04,04,44,13.80
2015,08,04,04,45,13.80
2015,08,04,04,46,13.70
2015,08,04,04,47,13.70
2015,08,04,04,48,13.70
2015,08,04,04,49,13.70
2015,08,04,04,50,13.70
2015,08,04,04,51,13.70
2015,08,04,04,52,13.70
2015,08,04,04,53,13.60
2015,08,04,04,54,13.60
2015,08,04,04,55,13.60
2015,08,04,04,56,13.60
2015,08,04,04,57,13.60
2015,08,04,04,58,13.60
2015,08,04,04,59,13.60
2015,08,04,05,00,13.60
2015,08,04,05,01,13.60
2015,08,04,05,02,13.60
2015,08,04,05,03,13.60
2015,08,04,05,04,13.60
2015,08,04,05,05,13.60
2015,08,04,05,06,13.60
2015,08,04,05,07,13.60
2015,08,04,05,08,13.70
2015,08,04,05,09,13.70
2015,08,04,05,10,13.70
2015,08,04,05,11,13.70
2015,08,04,05,12,13.70
2015,08,04,05,13,13.60
2015,08,04,05,14,13.60
2015,08,04,05,15,13.60
2015,08,04,05,16,13.60
2015,08,04,05,17,13.60
2015,08,04,05,18,13.60
2015,08,04,05,19,13.60
2015,08,04,05,20,13.60
2015,08,04,05,21,13.60
2015,08,04,05,22,13.60
2015,08,04,05,23,13.60
2015,08,04,05,24,13.60
2015,08,04,05,25,13.60
2015,08,04,05,26,13.60
2015,08,04,05,27,13.60
2015,08,04,05,28,13.60
2015,08,04,05,29,13.60
2015,08,04,05,30,13.60
2015,08,04,05,31,13.60
2015,08,04,05,32,13.60
2015,08,04,05,33,13.60
2015,08,04,05,34,13.50
2015,08,04,05,35,13.50
2015,08,04,05,36,13.50
2015,08,04,05,37,13.50
2015,08,04,05,38,13.50
2015,08,04,05,39,13.50
2015,08,04,05,40,13.50
2015,08,04,05,41,13.50
2015,08,04,05,42,13.50
2015,08,04,05,43,13.50
2015,08,04,05,44,13.50
2015,08,04,05,45,13.50
2015,08,04,05,46,13.50
2015,08,04,05,47,13.50
2015,08,04,05,48,13.50
2015,08,04,05,49,13.50
2015,08,04,05,50,13.50
2015,08,04,05,51,13.50
2015,08,04,05,52,13.50
2015,08,04,05,53,13.50
2015,08,04,05,54,13.50
2015,08,04,05,55,13.50
2015,08,04,05,56,13.40
2015,08,04,05,57,13.40
2015,08,04,05,58,13.40
2015,08,04,05,59,13.40
2015,08,04,06,00,13.40
2015,08,04,06,01,13.40
2015,08,04,06,02,13.40
2015,08,04,06,03,13.30
2015,08,04,06,04,13.30
2015,08,04,06,05,13.30
2015,08,04,06,06,13.30
2015,08,04,06,07,13.30
2015,08,04,06,08,13.30
2015,08,04,06,09,13.30
2015,08,04,06,10,13.30
2015,08,04,06,11,13.30
2015,08,04,06,12,13.30
2015,08,04,06,13,13.30
2015,08,04,06,14,13.30
2015,08,04,06,15,13.30
2015,08,04,06,16,13.30
2015,08,04,06,17,13.30
2015,08,04,06,18,13.30
2015,08,04,06,19,13.30
2015,08,04,06,20,13.30
2015,08,04,06,21,13.30
2015,08,04,06,22,13.40
2015,08,04,06,23,13.40
2015,08,04,06,24,13.40
2015,08,04,06,25,13.30
2015,08,04,06,26,13.40
2015,08,04,06,27,13.30
2015,08,04,06,28,13.30
2015,08,04,06,29,13.30
2015,08,04,06,30,13.30
2015,08,04,06,31,13.40
2015,08,04,06,32,13.40
2015,08,04,06,33,13.40
2015,08,04,06,34,13.40
2015,08,04,06,35,13.40
2015,08,04,06,36,13.40
2015,08,04,06,37,13.40
2015,08,04,06,38,13.40
2015,08,04,06,39,13.40
2015,08,04,06,40,13.50
2015,08,04,06,41,13.50
2015,08,04,06,42,13.50
2015,08,04,06,43,13.60
2015,08,04,06,44,13.60
2015,08,04,06,45,13.60
2015,08,04,06,46,13.60
2015,08,04,06,47,13.60
2015,08,04,06,48,13.60
2015,08,04,06,49,13.70
2015,08,04,06,50,13.70
2015,08,04,06,51,13.70
2015,08,04,06,52,13.70
2015,08,04,06,53,13.70
2015,08,04,06,54,13.70
2015,08,04,06,55,13.70
2015,08,04,06,56,13.80
2015,08,04,06,57,13.80
2015,08,04,06,58,13.80
2015,08,04,06,59,13.80
2015,08,04,07,00,13.80
2015,08,04,07,01,13.80
2015,08,04,07,02,13.80
2015,08,04,07,03,13.90
2015,08,04,07,04,13.90
2015,08,04,07,05,13.90
2015,08,04,07,06,13.90
2015,08,04,07,07,13.90
2015,08,04,07,08,13.90
2015,08,04,07,09,14.00
2015,08,04,07,10,14.00
2015,08,04,07,11,14.00
2015,08,04,07,12,14.00
2015,08,04,07,13,14.00
2015,08,04,07,14,14.10
2015,08,04,07,15,14.10
2015,08,04,07,16,14.10
2015,08,04,07,17,14.10
2015,08,04,07,18,14.10
2015,08,04,07,19,14.10
2015,08,04,07,20,14.10
2015,08,04,07,21,14.20
2015,08,04,07,22,14.20
2015,08,04,07,23,14.20
2015,08,04,07,24,14.20
2015,08,04,07,25,14.30
2015,08,04,07,26,14.30
2015,08,04,07,27,14.30
2015,08,04,07,28,14.30
2015,08,04,07,29,14.40
2015,08,04,07,30,14.40
2015,08,04,07,31,14.40
2015,08,04,07,32,14.50
2015,08,04,07,33,14.50
2015,08,04,07,34,14.50
2015,08,04,07,35,14.50
2015,08,04,07,36,14.50
2015,08,04,07,37,14.60
2015,08,04,07,38,14.60
2015,08,04,07,39,14.60
2015,08,04,07,40,14.60
2015,08,04,07,41,14.60
2015,08,04,07,42,14.60
2015,08,04,07,43,14.70
2015,08,04,07,44,14.70
2015,08,04,07,45,14.70
2015,08,04,07,46,14.80
2015,08,04,07,47,14.80
2015,08,04,07,48,14.80
2015,08,04,07,49,14.80
2015,08,04,07,50,14.90
2015,08,04,07,51,14.90
2015,08,04,07,52,14.90
2015,08,04,07,53,14.90
2015,08,04,07,54,15.00
2015,08,04,07,55,15.00
2015,08,04,07,56,15.00
2015,08,04,07,57,15.10
2015,08,04,07,58,15.10
2015,08,04,07,59,15.10
2015,08,04,08,00,15.20
2015,08,04,08,01,15.20
2015,08,04,08,02,15.20
2015,08,04,08,03,15.30
2015,08,04,08,04,15.30
2015,08,04,08,05,15.30
2015,08,04,08,06,15.40
2015,08,04,08,07,15.40
2015,08,04,08,08,15.40
2015,08,04,08,09,15.50
2015,08,04,08,10,15.60
2015,08,04,08,11,15.60
2015,08,04,08,12,15.70
2015,08,04,08,13,15.70
2015,08,04,08,14,15.80
2015,08,04,08,15,15.90
2015,08,04,08,16,15.90
2015,08,04,08,17,15.90
2015,08,04,08,18,16.00
2015,08,04,08,19,16.00
2015,08,04,08,20,16.00
2015,08,04,08,21,16.00
2015,08,04,08,22,16.10
2015,08,04,08,23,16.10
2015,08,04,08,24,16.10
2015,08,04,08,25,16.10
2015,08,04,08,26,16.20
2015,08,04,08,27,16.20
2015,08,04,08,28,16.20
2015,08,04,08,29,16.30
2015,08,04,08,30,16.30
2015,08,04,08,31,16.30
2015,08,04,08,32,16.30
2015,08,04,08,33,16.40
2015,08,04,08,34,16.40
2015,08,04,08,35,16.50
2015,08,04,08,36,16.50
2015,08,04,08,37,16.60
2015,08,04,08,38,16.60
2015,08,04,08,39,16.70
2015,08,04,08,40,16.70
2015,08,04,08,41,16.80
2015,08,04,08,42,16.80
2015,08,04,08,43,16.80
2015,08,04,08,44,16.80
2015,08,04,08,45,16.90
2015,08,04,08,46,16.90
2015,08,04,08,47,16.90
2015,08,04,08,48,16.90
2015,08,04,08,49,16.90
2015,08,04,08,50,17.00
2015,08,04,08,51,17.00
2015,08,04,08,52,17.10
2015,08,04,08,53,17.10
2015,08,04,08,54,17.10
2015,08,04,08,55,17.20
2015,08,04,08,56,17.20
2015,08,04,08,57,17.20
2015,08,04,08,58,17.20
2015,08,04,08,59,17.30
2015,08,04,09,00,17.30
2015,08,04,09,01,17.40
2015,08,04,09,02,17.40
2015,08,04,09,03,17.40
2015,08,04,09,04,17.40
2015,08,04,09,05,17.40
2015,08,04,09,06,17.40
2015,08,04,09,07,17.40
2015,08,04,09,08,17.40
2015,08,04,09,09,17.40
2015,08,04,09,10,17.30
2015,08,04,09,11,17.30
2015,08,04,09,12,17.30
2015,08,04,09,13,17.30
2015,08,04,09,14,17.20
2015,08,04,09,15,17.20
2015,08,04,09,16,17.20
2015,08,04,09,17,17.20
2015,08,04,09,18,17.20
2015,08,04,09,19,17.30
2015,08,04,09,20,17.30
2015,08,04,09,21,17.30
2015,08,04,09,22,17.30
2015,08,04,09,23,17.30
2015,08,04,09,24,17.30
2015,08,04,09,25,17.30
2015,08,04,09,26,17.40
2015,08,04,09,27,17.40
2015,08,04,09,28,17.50
2015,08,04,09,29,17.50
2015,08,04,09,30,17.60
2015,08,04,09,31,17.60
2015,08,04,09,32,17.60
2015,08,04,09,33,17.60
2015,08,04,09,34,17.60
2015,08,04,09,35,17.60
2015,08,04,09,36,17.60
2015,08,04,09,37,17.60
2015,08,04,09,38,17.60
2015,08,04,09,39,17.60
2015,08,04,09,40,17.70
2015,08,04,09,41,17.70
2015,08,04,09,42,17.70
2015,08,04,09,43,17.80
2015,08,04,09,44,17.80
2015,08,04,09,45,17.90
2015,08,04,09,46,17.90
2015,08,04,09,47,18.00
2015,08,04,09,48,18.10
2015,08,04,09,49,18.10
2015,08,04,09,50,18.20
2015,08,04,09,51,18.20
2015,08,04,09,52,18.20
2015,08,04,09,53,18.10
2015,08,04,09,54,18.10
2015,08,04,09,55,18.00
2015,08,04,09,56,18.00
2015,08,04,09,57,18.00
2015,08,04,09,58,18.00
2015,08,04,09,59,18.10
2015,08,04,10,00,18.10
2015,08,04,10,01,18.10
2015,08,04,10,02,18.10
2015,08,04,10,03,18.10
2015,08,04,10,04,18.20
2015,08,04,10,05,18.20
2015,08,04,10,06,18.20
2015,08,04,10,07,18.20
2015,08,04,10,08,18.30
2015,08,04,10,09,18.30
2015,08,04,10,10,18.30
2015,08,04,10,11,18.30
2015,08,04,10,12,18.20
2015,08,04,10,13,18.20
2015,08,04,10,14,18.10
2015,08,04,10,15,18.10
2015,08,04,10,16,18.20
2015,08,04,10,17,18.20
2015,08,04,10,18,18.20
2015,08,04,10,19,18.20
2015,08,04,10,20,18.20
2015,08,04,10,21,18.20
2015,08,04,10,22,18.20
2015,08,04,10,23,18.20
2015,08,04,10,24,18.20
2015,08,04,10,25,18.20
2015,08,04,10,26,18.30
2015,08,04,10,27,18.40
2015,08,04,10,28,18.40
2015,08,04,10,29,18.50
2015,08,04,10,30,18.50
2015,08,04,10,31,18.60
2015,08,04,10,32,18.60
2015,08,04,10,33,18.60
2015,08,04,10,34,18.60
2015,08,04,10,35,18.60
2015,08,04,10,36,18.70
2015,08,04,10,37,18.70
2015,08,04,10,38,18.80
2015,08,04,10,39,18.80
2015,08,04,10,40,18.90
2015,08,04,10,41,18.90
2015,08,04,10,42,19.00
2015,08,04,10,43,19.00
2015,08,04,10,44,19.10
2015,08,04,10,45,19.10
2015,08,04,10,46,19.10
2015,08,04,10,47,19.10
2015,08,04,10,48,19.10
2015,08,04,10,49,19.00
2015,08,04,10,50,18.90
2015,08,04,10,51,19.00
2015,08,04,10,52,19.00
2015,08,04,10,53,19.00
2015,08,04,10,54,19.00
2015,08,04,10,55,19.00
2015,08,04,10,56,19.00
2015,08,04,10,57,18.90
2015,08,04,10,58,18.90
2015,08,04,10,59,18.90
2015,08,04,11,00,18.90
2015,08,04,11,01,18.90
2015,08,04,11,02,18.90
2015,08,04,11,03,19.00
2015,08,04,11,04,19.00
2015,08,04,11,05,19.10
2015,08,04,11,06,19.10
2015,08,04,11,07,19.20
2015,08,04,11,08,19.20
2015,08,04,11,09,19.20
2015,08,04,11,10,19.10
2015,08,04,11,11,19.10
2015,08,04,11,12,19.10
2015,08,04,11,13,19.10
2015,08,04,11,14,19.20
2015,08,04,11,15,19.20
2015,08,04,11,16,19.30
2015,08,04,11,17,19.30
2015,08,04,11,18,19.40
2015,08,04,11,19,19.50
2015,08,04,11,20,19.50
2015,08,04,11,21,19.60
2015,08,04,11,22,19.70
2015,08,04,11,23,19.70
2015,08,04,11,24,19.70
2015,08,04,11,25,19.70
2015,08,04,11,26,19.80
2015,08,04,11,27,19.80
2015,08,04,11,28,19.90
2015,08,04,11,29,20.00
2015,08,04,11,30,20.00
2015,08,04,11,31,20.10
2015,08,04,11,32,20.20
2015,08,04,11,33,20.20
2015,08,04,11,34,20.30
2015,08,04,11,35,20.40
2015,08,04,11,36,20.60
2015,08,04,11,37,20.70
2015,08,04,11,38,20.70
2015,08,04,11,39,20.70
2015,08,04,11,40,20.70
2015,08,04,11,41,20.60
2015,08,04,11,42,20.40
2015,08,04,11,43,20.30
2015,08,04,11,44,20.20
2015,08,04,11,45,20.10
2015,08,04,11,46,20.10
2015,08,04,11,47,20.20
2015,08,04,11,48,20.20
2015,08,04,11,49,20.20
2015,08,04,11,50,20.20
2015,08,04,11,51,20.20
2015,08,04,11,52,20.20
2015,08,04,11,53,20.30
2015,08,04,11,54,20.30
2015,08,04,11,55,20.40
2015,08,04,11,56,20.50
2015,08,04,11,57,20.60
2015,08,04,11,58,20.50
2015,08,04,11,59,20.40
2015,08,04,12,00,20.50
2015,08,04,12,01,20.60
2015,08,04,12,02,20.70
2015,08,04,12,03,20.80
2015,08,04,12,04,20.80
2015,08,04,12,05,20.80
2015,08,04,12,06,20.90
2015,08,04,12,07,21.00
2015,08,04,12,08,21.10
2015,08,04,12,09,21.20
2015,08,04,12,10,21.20
2015,08,04,12,11,21.30
2015,08,04,12,12,21.30
2015,08,04,12,13,21.40
2015,08,04,12,14,21.40
2015,08,04,12,15,21.30
2015,08,04,12,16,21.20
2015,08,04,12,17,21.20
2015,08,04,12,18,21.10
2015,08,04,12,19,21.20
2015,08,04,12,20,21.20
2015,08,04,12,21,21.10
2015,08,04,12,22,21.00
2015,08,04,12,23,20.80
2015,08,04,12,24,20.70
2015,08,04,12,25,20.60
2015,08,04,12,26,20.60
2015,08,04,12,27,20.60
2015,08,04,12,28,20.60
2015,08,04,12,29,20.70
2015,08,04,12,30,20.80
2015,08,04,12,31,20.70
2015,08,04,12,32,20.70
2015,08,04,12,33,20.70
2015,08,04,12,34,20.80
2015,08,04,12,35,20.80
2015,08,04,12,36,20.90
2015,08,04,12,37,20.90
2015,08,04,12,38,21.00
2015,08,04,12,39,21.10
2015,08,04,12,40,21.10
2015,08,04,12,41,21.20
2015,08,04,12,42,21.20
2015,08,04,12,43,21.30
2015,08,04,12,44,21.30
2015,08,04,12,45,21.30
2015,08,04,12,46,21.30
2015,08,04,12,47,21.20
2015,08,04,12,48,21.10
2015,08,04,12,49,21.00
2015,08,04,12,50,20.90
2015,08,04,12,51,20.90
2015,08,04,12,52,20.80
2015,08,04,12,53,20.80
2015,08,04,12,54,20.80
2015,08,04,12,55,20.80
2015,08,04,12,56,20.80
2015,08,04,12,57,20.80
2015,08,04,12,58,20.90
2015,08,04,12,59,21.10
2015,08,04,13,00,21.20
2015,08,04,13,01,21.30
2015,08,04,13,02,21.40
2015,08,04,13,03,21.40
2015,08,04,13,04,21.40
2015,08,04,13,05,21.30
2015,08,04,13,06,21.20
2015,08,04,13,07,21.10
2015,08,04,13,08,21.10
2015,08,04,13,09,21.10
2015,08,04,13,10,21.20
2015,08,04,13,11,21.20
2015,08,04,13,12,21.20
2015,08,04,13,13,21.20
2015,08,04,13,14,21.20
2015,08,04,13,15,21.30
2015,08,04,13,16,21.30
2015,08,04,13,17,21.40
2015,08,04,13,18,21.50
2015,08,04,13,19,21.60
2015,08,04,13,20,21.70
2015,08,04,13,21,21.70
2015,08,04,13,22,21.80
2015,08,04,13,23,21.80
2015,08,04,13,24,21.90
2015,08,04,13,25,22.00
2015,08,04,13,26,22.10
2015,08,04,13,27,22.20
2015,08,04,13,28,22.30
2015,08,04,13,29,22.40
2015,08,04,13,30,22.50
2015,08,04,13,31,22.60
2015,08,04,13,32,22.70
2015,08,04,13,33,22.70
2015,08,04,13,34,22.80
2015,08,04,13,35,22.80
2015,08,04,13,36,22.80
2015,08,04,13,37,22.80
2015,08,04,13,38,22.70
2015,08,04,13,39,22.70
2015,08,04,13,40,22.60
2015,08,04,13,41,22.60
2015,08,04,13,42,22.70
2015,08,04,13,43,22.70
2015,08,04,13,44,22.80
2015,08,04,13,45,22.80
2015,08,04,13,46,22.90
2015,08,04,13,47,23.00
2015,08,04,13,48,23.00
2015,08,04,13,49,23.00
2015,08,04,13,50,23.00
2015,08,04,13,51,23.10
2015,08,04,13,52,23.10
2015,08,04,13,53,23.20
2015,08,04,13,54,23.30
2015,08,04,13,55,23.30
2015,08,04,13,56,23.30
2015,08,04,13,57,23.40
2015,08,04,13,58,23.40
2015,08,04,13,59,23.40
2015,08,04,14,00,23.50
2015,08,04,14,01,23.50
2015,08,04,14,02,23.50
2015,08,04,14,03,23.50
2015,08,04,14,04,23.50
2015,08,04,14,05,23.60
2015,08,04,14,06,23.70
2015,08,04,14,07,23.70
2015,08,04,14,08,23.70
2015,08,04,14,09,23.60
2015,08,04,14,10,23.70
2015,08,04,14,11,23.60
2015,08,04,14,12,23.50
2015,08,04,14,13,23.30
2015,08,04,14,14,23.20
2015,08,04,14,15,23.20
2015,08,04,14,16,23.20
2015,08,04,14,17,23.10
2015,08,04,14,18,23.00
2015,08,04,14,19,23.00
2015,08,04,14,20,22.90
2015,08,04,14,21,22.90
2015,08,04,14,22,22.90
2015,08,04,14,23,23.00
2015,08,04,14,24,23.10
2015,08,04,14,25,23.10
2015,08,04,14,26,23.10
2015,08,04,14,27,23.20
2015,08,04,14,28,23.20
2015,08,04,14,29,23.20
2015,08,04,14,30,23.30
2015,08,04,14,31,23.30
2015,08,04,14,32,23.40
2015,08,04,14,33,23.40
2015,08,04,14,34,23.40
2015,08,04,14,35,23.40
2015,08,04,14,36,23.30
2015,08,04,14,37,23.30
2015,08,04,14,38,23.30
2015,08,04,14,39,23.30
2015,08,04,14,40,23.40
2015,08,04,14,41,23.40
2015,08,04,14,42,23.40
2015,08,04,14,43,23.40
2015,08,04,14,44,23.40
2015,08,04,14,45,23.50
2015,08,04,14,46,23.60
2015,08,04,14,47,23.70
2015,08,04,14,48,23.80
2015,08,04,14,49,23.90
2015,08,04,14,50,24.10
2015,08,04,14,51,24.10
2015,08,04,14,52,24.20
2015,08,04,14,53,24.30
2015,08,04,14,54,24.30
2015,08,04,14,55,24.30
2015,08,04,14,56,24.30
2015,08,04,14,57,24.30
2015,08,04,14,58,24.40
2015,08,04,14,59,24.50
2015,08,04,15,00,24.60
2015,08,04,15,01,24.60
2015,08,04,15,02,24.60
2015,08,04,15,03,24.50
2015,08,04,15,04,24.40
2015,08,04,15,05,24.30
2015,08,04,15,06,24.30
2015,08,04,15,07,24.30
2015,08,04,15,08,24.20
2015,08,04,15,09,24.00
2015,08,04,15,10,23.90
2015,08,04,15,11,23.80
2015,08,04,15,12,23.80
2015,08,04,15,13,23.80
2015,08,04,15,14,23.90
2015,08,04,15,15,24.10
2015,08,04,15,16,24.20
2015,08,04,15,17,24.30
2015,08,04,15,18,24.30
2015,08,04,15,19,24.30
2015,08,04,15,20,24.30
2015,08,04,15,21,24.20
2015,08,04,15,22,24.20
2015,08,04,15,23,24.10
2015,08,04,15,24,24.10
2015,08,04,15,25,24.10
2015,08,04,15,26,24.10
2015,08,04,15,27,24.10
2015,08,04,15,28,24.10
2015,08,04,15,29,24.10
2015,08,04,15,30,24.10
2015,08,04,15,31,24.10
2015,08,04,15,32,24.10
2015,08,04,15,33,24.20
2015,08,04,15,34,24.30
2015,08,04,15,35,24.30
2015,08,04,15,36,24.30
2015,08,04,15,37,24.30
2015,08,04,15,38,24.30
2015,08,04,15,39,24.30
2015,08,04,15,40,24.30
2015,08,04,15,41,24.40
2015,08,04,15,42,24.50
2015,08,04,15,43,24.50
2015,08,04,15,44,24.60
2015,08,04,15,45,24.60
2015,08,04,15,46,24.60
2015,08,04,15,47,24.70
2015,08,04,15,48,24.70
2015,08,04,15,49,24.60
2015,08,04,15,50,24.60
2015,08,04,15,51,24.60
2015,08,04,15,52,24.60
2015,08,04,15,53,24.70
2015,08,04,15,54,24.70
2015,08,04,15,55,24.60
2015,08,04,15,56,24.60
2015,08,04,15,57,24.60
2015,08,04,15,58,24.60
2015,08,04,15,59,24.60
2015,08,04,16,00,24.60
2015,08,04,16,01,24.60
2015,08,04,16,02,24.60
2015,08,04,16,03,24.60
2015,08,04,16,04,24.60
2015,08,04,16,05,24.60
2015,08,04,16,06,24.70
2015,08,04,16,07,24.80
2015,08,04,16,08,24.90
2015,08,04,16,09,25.00
2015,08,04,16,10,25.00
2015,08,04,16,11,24.90
2015,08,04,16,12,24.90
2015,08,04,16,13,24.90
2015,08,04,16,14,24.90
2015,08,04,16,15,25.00
2015,08,04,16,16,25.00
2015,08,04,16,17,25.10
2015,08,04,16,18,25.20
2015,08,04,16,19,25.20
2015,08,04,16,20,25.20
2015,08,04,16,21,25.30
2015,08,04,16,22,25.30
2015,08,04,16,23,25.30
2015,08,04,16,24,25.20
2015,08,04,16,25,25.20
2015,08,04,16,26,25.20
2015,08,04,16,27,25.20
2015,08,04,16,28,25.20
2015,08,04,16,29,25.30
2015,08,04,16,30,25.30
2015,08,04,16,31,25.30
2015,08,04,16,32,25.20
2015,08,04,16,33,25.10
2015,08,04,16,34,25.10
2015,08,04,16,35,24.90
2015,08,04,16,36,24.90
2015,08,04,16,37,24.80
2015,08,04,16,38,24.80
2015,08,04,16,39,24.70
2015,08,04,16,40,24.70
2015,08,04,16,41,24.70
2015,08,04,16,42,24.60
2015,08,04,16,43,24.60
2015,08,04,16,44,24.60
2015,08,04,16,45,24.60
2015,08,04,16,46,24.60
2015,08,04,16,47,24.70
2015,08,04,16,48,24.70
2015,08,04,16,49,24.80
2015,08,04,16,50,24.70
2015,08,04,16,51,24.70
2015,08,04,16,52,24.70
2015,08,04,16,53,24.70
2015,08,04,16,54,24.70
2015,08,04,16,55,24.70
2015,08,04,16,56,24.80
2015,08,04,16,57,24.80
2015,08,04,16,58,24.90
2015,08,04,16,59,25.00
2015,08,04,17,00,25.00
2015,08,04,17,01,25.10
2015,08,04,17,02,25.20
2015,08,04,17,03,25.20
2015,08,04,17,04,25.30
2015,08,04,17,05,25.30
2015,08,04,17,06,25.40
2015,08,04,17,07,25.40
2015,08,04,17,08,25.40
2015,08,04,17,09,25.50
2015,08,04,17,10,25.50
2015,08,04,17,11,25.60
2015,08,04,17,12,25.70
2015,08,04,17,13,25.70
2015,08,04,17,14,25.80
2015,08,04,17,15,25.80
2015,08,04,17,16,25.70
2015,08,04,17,17,25.70
2015,08,04,17,18,25.60
2015,08,04,17,19,25.50